| time (UTC) | temp F | wind direction | speed MPH | gust MPH | rain 1hr in | rain 24hr in | rain mn in | humidity % | barometer mb |
| 20260904111304 | 91 | 296 | 2.0 | 5.0 | 0.00 | 0.00 | 0.00 | 58 | 1006.2 |
| 20260904110304 | 91 | 265 | 3.0 | 5.0 | 0.00 | 0.00 | 0.00 | 58 | 1005.9 |
| 20260904105306 | 91 | 307 | 2.0 | 4.0 | 0.00 | 0.00 | 0.00 | 58 | 1005.7 |
| 20260904104304 | 91 | 326 | 2.0 | 8.0 | 0.00 | 0.00 | 0.00 | 58 | 1005.8 |
| 20260904103303 | 91 | 284 | 3.0 | 7.0 | 0.00 | 0.00 | 0.00 | 58 | 1005.5 |
| 20260904102307 | 91 | 300 | 2.0 | 9.0 | 0.00 | 0.00 | 0.00 | 57 | 1005.3 |
| 20260904101304 | 91 | 276 | 6.0 | 10.0 | 0.00 | 0.00 | 0.00 | 57 | 1005.2 |
| 20260904100304 | 91 | 311 | 5.0 | 9.0 | 0.00 | 0.00 | 0.00 | 57 | 1005.3 |
| 20260904095308 | 91 | 335 | 3.0 | 7.0 | 0.00 | 0.00 | 0.00 | 57 | 1005.3 |
| 20260904094305 | 91 | 332 | 4.0 | 9.0 | 0.00 | 0.00 | 0.00 | 57 | 1005.1 |
| 20260904093304 | 91 | 271 | 2.0 | 11.0 | 0.00 | 0.00 | 0.00 | 56 | 1005.0 |
| 20260904092306 | 91 | 255 | 8.0 | 8.0 | 0.00 | 0.00 | 0.00 | 56 | 1004.8 |
| 20260904091304 | 91 | 277 | 3.0 | 8.0 | 0.00 | 0.00 | 0.00 | 56 | 1004.8 |
| 20260904090304 | 91 | 307 | 3.0 | 7.0 | 0.00 | 0.00 | 0.00 | 58 | 1004.7 |
| 20260904090231 | 91 | 229 | 6.0 | 11.0 | 0.00 | 0.00 | 0.00 | 58 | 1004.9 |
| 20260904084304 | 91 | 305 | 4.0 | 11.0 | 0.00 | 0.00 | 0.00 | 59 | 1004.9 |
| 20260904083304 | 90 | 302 | 2.0 | 7.0 | 0.00 | 0.00 | 0.00 | 59 | 1005.1 |
| 20260904082305 | 90 | 287 | 5.0 | 8.0 | 0.00 | 0.00 | 0.00 | 60 | 1005.2 |
| 20260904081747 | 90 | 258 | 5.0 | 9.0 | 0.00 | 0.00 | 0.00 | 60 | 1005.3 |
| 20260904080709 | 90 | 273 | 2.0 | 7.0 | 0.00 | 0.00 | 0.00 | 61 | 1005.8 |
| 20260904080444 | 90 | 301 | 1.0 | 7.0 | 0.00 | 0.00 | 0.00 | 61 | 1005.6 |
| 20260904075232 | 90 | 245 | 4.0 | 6.0 | 0.00 | 0.00 | 0.00 | 62 | 1005.9 |
| 20260904073304 | 90 | 328 | 2.0 | 13.0 | 0.00 | 0.00 | 0.00 | 62 | 1006.0 |
| 20260904072306 | 90 | 252 | 5.0 | 8.0 | 0.00 | 0.00 | 0.00 | 62 | 1006.2 |
| 20260904072225 | 90 | 246 | 2.0 | 8.0 | 0.00 | 0.00 | 0.00 | 63 | 1006.2 |
| 20260904070304 | 90 | 278 | 1.0 | 7.0 | 0.00 | 0.00 | 0.00 | 63 | 1006.3 |
| 20260904065306 | 89 | 251 | 4.0 | 7.0 | 0.00 | 0.00 | 0.00 | 63 | 1006.5 |
| 20260904064305 | 89 | 294 | 1.0 | 8.0 | 0.00 | 0.00 | 0.00 | 63 | 1006.8 |
| 20260904063304 | 89 | 293 | 3.0 | 9.0 | 0.00 | 0.00 | 0.00 | 63 | 1007.1 |
| 20260904062306 | 89 | 295 | 2.0 | 11.0 | 0.00 | 0.00 | 0.00 | 63 | 1007.1 |
| 20260904061743 | 89 | 295 | 2.0 | 9.0 | 0.00 | 0.00 | 0.00 | 63 | 1007.3 |
| 20260904060306 | 89 | 301 | 3.0 | 10.0 | 0.00 | 0.00 | 0.00 | 62 | 1007.5 |
| 20260904055306 | 89 | 293 | 2.0 | 7.0 | 0.00 | 0.00 | 0.00 | 63 | 1007.6 |
| 20260904054304 | 89 | 293 | 3.0 | 8.0 | 0.00 | 0.00 | 0.00 | 64 | 1007.8 |
| 20260904053304 | 89 | 251 | 2.0 | 9.0 | 0.00 | 0.00 | 0.00 | 63 | 1007.7 |
| 20260904052437 | 89 | 254 | 3.0 | 9.0 | 0.00 | 0.00 | 0.00 | 64 | 1007.9 |
| 20260904051942 | 89 | 286 | 2.0 | 7.0 | 0.00 | 0.00 | 0.00 | 64 | 1008.0 |
| 20260904050936 | 89 | 293 | 4.0 | 9.0 | 0.00 | 0.00 | 0.00 | 63 | 1008.3 |
| 20260904045421 | 89 | 261 | 5.0 | 14.0 | 0.00 | 0.00 | 0.00 | 63 | 1008.4 |
| 20260904044416 | 89 | 350 | 7.0 | 13.0 | 0.00 | 0.00 | 0.00 | 64 | 1008.5 |
| 20260904043413 | 88 | 253 | 3.0 | 9.0 | 0.00 | 0.00 | 0.00 | 64 | 1008.6 |
| 20260904042410 | 88 | 254 | 7.0 | 11.0 | 0.00 | 0.00 | 0.00 | 64 | 1008.7 |
| 20260904041409 | 88 | 274 | 4.0 | 8.0 | 0.00 | 0.00 | 0.00 | 64 | 1008.8 |
| 20260904040405 | 88 | 242 | 5.0 | 9.0 | 0.00 | 0.00 | 0.00 | 65 | 1008.9 |
| 20260904035406 | 88 | 290 | 4.0 | 11.0 | 0.00 | 0.00 | 0.00 | 64 | 1008.9 |
| 20260904034403 | 87 | 269 | 3.0 | 8.0 | 0.00 | 0.00 | 0.00 | 65 | 1009.2 |
| 20260904033400 | 87 | 264 | 3.0 | 7.0 | 0.00 | 0.00 | 0.00 | 65 | 1009.1 |
| 20260904032358 | 87 | 286 | 2.0 | 8.0 | 0.00 | 0.00 | 0.00 | 66 | 1009.2 |
| 20260904031911 | 87 | 325 | 2.0 | 10.0 | 0.00 | 0.00 | 0.00 | 66 | 1009.1 |
| 20260904030344 | 87 | 257 | 4.0 | 9.0 | 0.00 | 0.00 | 0.00 | 67 | 1009.2 |
| 20260904025853 | 86 | 246 | 4.0 | 8.0 | 0.00 | 0.00 | 0.00 | 66 | 1009.3 |
| 20260904024335 | 86 | 278 | 2.0 | 9.0 | 0.00 | 0.00 | 0.00 | 66 | 1009.3 |
| 20260904023330 | 86 | 260 | 5.0 | 8.0 | 0.00 | 0.00 | 0.00 | 68 | 1009.4 |
| 20260904022328 | 86 | 228 | 6.0 | 9.0 | 0.00 | 0.00 | 0.00 | 68 | 1009.4 |
| 20260904021325 | 86 | 338 | 2.0 | 7.0 | 0.00 | 0.00 | 0.00 | 68 | 1009.3 |
| 20260904020319 | 86 | 331 | 1.0 | 10.0 | 0.00 | 0.00 | 0.00 | 69 | 1009.4 |
| 20260904015317 | 86 | 331 | 2.0 | 9.0 | 0.00 | 0.00 | 0.00 | 69 | 1009.4 |
| 20260904014314 | 86 | 283 | 2.0 | 8.0 | 0.00 | 0.00 | 0.00 | 68 | 1009.4 |
| 20260904013309 | 86 | 323 | 2.0 | 5.0 | 0.00 | 0.00 | 0.00 | 69 | 1009.2 |
| 20260904012306 | 85 | 18 | 1.0 | 6.0 | 0.00 | 0.00 | 0.00 | 69 | 1009.1 |
| 20260904011300 | 85 | 266 | 3.0 | 7.0 | 0.00 | 0.00 | 0.00 | 69 | 1008.9 |
| 20260904010258 | 85 | 295 | 2.0 | 7.0 | 0.00 | 0.00 | 0.00 | 70 | 1008.8 |
| 20260904005253 | 85 | 217 | 2.0 | 7.0 | 0.00 | 0.00 | 0.00 | 69 | 1008.6 |
| 20260904004249 | 85 | 351 | 1.0 | 8.0 | 0.00 | 0.00 | 0.00 | 70 | 1008.5 |
| 20260904003248 | 85 | 242 | 5.0 | 6.0 | 0.00 | 0.00 | 0.00 | 69 | 1008.5 |
| 20260904002243 | 85 | 239 | 3.0 | 5.0 | 0.00 | 0.00 | 0.00 | 69 | 1008.3 |
| 20260904001240 | 85 | 239 | 5.0 | 7.0 | 0.00 | 0.00 | 0.00 | 69 | 1008.2 |
| 20260904000242 | 85 | 282 | 1.0 | 5.0 | 0.00 | 0.00 | 0.00 | 70 | 1008.0 |
| 20260903235236 | 85 | 235 | 0.0 | 5.0 | 0.00 | 0.00 | 0.00 | 69 | 1007.8 |
| 20260903234236 | 85 | 277 | 2.0 | 6.0 | 0.00 | 0.00 | 0.00 | 70 | 1007.8 |
| 20260903233318 | 85 | 30 | 0.0 | 3.0 | 0.00 | 0.00 | 0.00 | 69 | 1007.6 |
| 20260903232730 | 85 | 245 | 4.0 | 6.0 | 0.00 | 0.00 | 0.00 | 70 | 1007.6 |
| 20260903231231 | 85 | 264 | 2.0 | 2.0 | 0.00 | 0.00 | 0.00 | 70 | 1007.4 |
| 20260903230231 | 85 | 258 | 0.0 | 4.0 | 0.00 | 0.00 | 0.00 | 70 | 1007.3 |
| 20260903225231 | 85 | 232 | 0.0 | 4.0 | 0.00 | 0.00 | 0.00 | 69 | 1007.3 |
| 20260903224231 | 85 | 43 | 0.0 | 5.0 | 0.00 | 0.00 | 0.00 | 70 | 1007.1 |
| 20260903223232 | 85 | 22 | 0.0 | 5.0 | 0.00 | 0.00 | 0.00 | 70 | 1007.2 |
| 20260903222245 | 85 | 236 | 2.0 | 4.0 | 0.00 | 0.00 | 0.00 | 70 | 1007.1 |
| 20260903221237 | 85 | 234 | 2.0 | 4.0 | 0.00 | 0.00 | 0.00 | 70 | 1007.0 |
| 20260903220231 | 85 | 205 | 2.0 | 3.0 | 0.00 | 0.00 | 0.00 | 70 | 1006.9 |
| 20260903215237 | 85 | 25 | 0.0 | 5.0 | 0.00 | 0.00 | 0.00 | 70 | 1006.8 |
| 20260903214713 | 85 | 246 | 1.0 | 5.0 | 0.00 | 0.00 | 0.00 | 70 | 1006.8 |
| 20260903213238 | 85 | 213 | 3.0 | 6.0 | 0.00 | 0.00 | 0.00 | 70 | 1006.7 |
| 20260903212322 | 85 | 315 | 0.0 | 5.0 | 0.00 | 0.00 | 0.00 | 70 | 1006.7 |
| 20260903211233 | 85 | 274 | 3.0 | 5.0 | 0.00 | 0.00 | 0.00 | 70 | 1006.6 |
| 20260903210233 | 85 | 224 | 2.0 | 3.0 | 0.00 | 0.00 | 0.00 | 70 | 1006.8 |
| 20260903205233 | 85 | 251 | 0.0 | 5.0 | 0.00 | 0.00 | 0.00 | 71 | 1006.6 |
| 20260903204233 | 85 | 37 | 0.0 | 3.0 | 0.00 | 0.00 | 0.00 | 71 | 1006.6 |
| 20260903203232 | 86 | 232 | 2.0 | 4.0 | 0.00 | 0.00 | 0.00 | 71 | 1006.7 |
| 20260903202232 | 86 | 209 | 1.0 | 5.0 | 0.00 | 0.00 | 0.00 | 71 | 1006.7 |
| 20260903201720 | 86 | 231 | 1.0 | 4.0 | 0.00 | 0.00 | 0.00 | 71 | 1006.8 |
| 20260903200234 | 86 | 257 | 0.0 | 2.0 | 0.00 | 0.00 | 0.00 | 71 | 1006.9 |
| 20260903195232 | 86 | 22 | 0.0 | 3.0 | 0.00 | 0.00 | 0.00 | 71 | 1007.0 |
| 20260903194233 | 86 | 336 | 0.0 | 1.0 | 0.00 | 0.00 | 0.00 | 71 | 1007.2 |
| 20260903193236 | 86 | 135 | 0.0 | 0.0 | 0.00 | 0.00 | 0.00 | 71 | 1007.3 |
| 20260903192234 | 86 | 89 | 0.0 | 1.0 | 0.00 | 0.00 | 0.00 | 71 | 1007.5 |
| 20260903191233 | 86 | 75 | 0.0 | 2.0 | 0.00 | 0.00 | 0.00 | 71 | 1007.6 |
| 20260903190716 | 86 | 246 | 0.0 | 2.0 | 0.00 | 0.00 | 0.00 | 71 | 1007.6 |
| 20260903185232 | 86 | 269 | 0.0 | 2.0 | 0.00 | 0.00 | 0.00 | 71 | 1007.5 |
| 20260903184231 | 86 | 223 | 0.0 | 4.0 | 0.00 | 0.00 | 0.00 | 71 | 1007.7 |
| 20260903183226 | 86 | 232 | 2.0 | 4.0 | 0.00 | 0.00 | 0.00 | 71 | 1007.6 |
| 20260903182211 | 86 | 106 | 0.0 | 9.0 | 0.00 | 0.00 | 0.00 | 72 | 1007.5 |
| 20260903181210 | 86 | 222 | 2.0 | 3.0 | 0.00 | 0.00 | 0.00 | 72 | 1007.4 |
| 20260903180209 | 87 | 202 | 1.0 | 4.0 | 0.00 | 0.00 | 0.00 | 72 | 1007.3 |
| 20260903175208 | 87 | 243 | 2.0 | 5.0 | 0.00 | 0.00 | 0.00 | 72 | 1007.5 |
| 20260903174209 | 87 | 242 | 1.0 | 4.0 | 0.00 | 0.00 | 0.00 | 73 | 1007.4 |
| 20260903173208 | 87 | 280 | 0.0 | 3.0 | 0.00 | 0.00 | 0.00 | 75 | 1007.6 |
| 20260903172203 | 87 | 219 | 0.0 | 2.0 | 0.00 | 0.00 | 0.00 | 76 | 1007.8 |
| 20260903171204 | 87 | 224 | 0.0 | 2.0 | 0.00 | 0.00 | 0.00 | 76 | 1007.8 |
| 20260903170203 | 87 | 154 | 0.0 | 2.0 | 0.00 | 0.00 | 0.00 | 76 | 1007.8 |
| 20260903165703 | 87 | 269 | 1.0 | 2.0 | 0.00 | 0.00 | 0.00 | 76 | 1007.9 |
| 20260903164203 | 87 | 50 | 0.0 | 1.0 | 0.00 | 0.00 | 0.00 | 76 | 1008.0 |
| 20260903163205 | 87 | 38 | 0.0 | 1.0 | 0.00 | 0.00 | 0.00 | 75 | 1008.2 |
| 20260903162204 | 87 | 321 | 0.0 | 2.0 | 0.00 | 0.00 | 0.00 | 75 | 1008.3 |
| 20260903161205 | 87 | 193 | 0.0 | 1.0 | 0.00 | 0.00 | 0.00 | 75 | 1008.4 |
| 20260903160208 | 87 | 76 | 0.0 | 2.0 | 0.00 | 0.00 | 0.00 | 75 | 1008.5 |
| 20260903160125 | 87 | 343 | 0.0 | 2.0 | 0.00 | 0.00 | 0.00 | 74 | 1008.7 |
| 20260903154205 | 87 | 102 | 0.0 | 2.0 | 0.00 | 0.00 | 0.00 | 74 | 1008.6 |
| 20260903153204 | 87 | 38 | 0.0 | 2.0 | 0.00 | 0.00 | 0.00 | 73 | 1008.6 |
| 20260903152204 | 87 | 89 | 0.0 | 1.0 | 0.00 | 0.00 | 0.00 | 73 | 1008.6 |
| 20260903151205 | 87 | 229 | 0.0 | 2.0 | 0.00 | 0.00 | 0.00 | 73 | 1008.5 |
| 20260903150202 | 87 | 269 | 0.0 | 1.0 | 0.00 | 0.00 | 0.00 | 71 | 1008.6 |
| 20260903145204 | 87 | 269 | 0.0 | 2.0 | 0.00 | 0.00 | 0.00 | 73 | 1008.5 |
| 20260903144701 | 88 | 32 | 0.0 | 2.0 | 0.00 | 0.00 | 0.00 | 72 | 1008.1 |
| 20260903143338 | 88 | 62 | 0.0 | 2.0 | 0.00 | 0.00 | 0.00 | 72 | 1007.8 |
| 20260903142337 | 88 | 315 | 0.0 | 2.0 | 0.00 | 0.00 | 0.00 | 72 | 1007.7 |
| 20260903141334 | 88 | 82 | 0.0 | 2.0 | 0.00 | 0.00 | 0.00 | 72 | 1007.2 |
| 20260903140330 | 88 | 239 | 0.0 | 2.0 | 0.00 | 0.00 | 0.00 | 71 | 1006.9 |
| 20260903135841 | 88 | 119 | 1.0 | 3.0 | 0.00 | 0.00 | 0.00 | 69 | 1006.8 |
| 20260903134323 | 88 | 53 | 1.0 | 4.0 | 0.00 | 0.00 | 0.00 | 71 | 1006.8 |
| 20260903133325 | 88 | 78 | 2.0 | 3.0 | 0.00 | 0.00 | 0.00 | 71 | 1006.9 |
| 20260903132319 | 88 | 131 | 1.0 | 2.0 | 0.00 | 0.00 | 0.00 | 70 | 1006.9 |
| 20260903131315 | 89 | 233 | 2.0 | 4.0 | 0.00 | 0.00 | 0.00 | 70 | 1007.0 |
| 20260903130324 | 89 | 349 | 2.0 | 4.0 | 0.00 | 0.00 | 0.00 | 70 | 1006.6 |
| 20260903125306 | 89 | 43 | 4.0 | 5.0 | 0.00 | 0.00 | 0.00 | 69 | 1006.4 |
| 20260903124300 | 89 | 15 | 0.0 | 5.0 | 0.00 | 0.00 | 0.00 | 68 | 1006.7 |
| 20260903123301 | 89 | 273 | 2.0 | 6.0 | 0.00 | 0.00 | 0.00 | 67 | 1006.4 |
| 20260903122255 | 89 | 54 | 2.0 | 6.0 | 0.00 | 0.00 | 0.00 | 67 | 1006.0 |
| 20260903121251 | 89 | 242 | 1.0 | 8.0 | 0.00 | 0.00 | 0.00 | 68 | 1006.0 |
| 20260903120248 | 90 | 238 | 5.0 | 10.0 | 0.00 | 0.00 | 0.00 | 68 | 1005.7 |
| 20260903115249 | 90 | 254 | 3.0 | 11.0 | 0.00 | 0.00 | 0.00 | 68 | 1005.6 |
| 20260903114246 | 90 | 213 | 2.0 | 8.0 | 0.00 | 0.00 | 0.00 | 68 | 1005.1 |
| 20260903113244 | 90 | 323 | 2.0 | 5.0 | 0.00 | 0.00 | 0.00 | 65 | 1005.0 |
| 20260903112239 | 90 | 249 | 1.0 | 5.0 | 0.00 | 0.00 | 0.00 | 64 | 1004.3 |